DB0MOD Weather Reports


time (UTC)temp
C
wind
direction
speed
KPH
gust
KPH
rain 1hr
cm
rain 24hr
cm
rain mn
cm
humidity
%
barometer
mb
20260507040358 5 247 0.0 0.0 0.00 0.00 0.00 10 1010.5
20260507035858 5 225 0.0 0.0 0.00 0.00 0.00 10 1010.6
20260507035358 5 270 0.0 0.0 0.00 0.00 0.00 10 1010.5
20260507034858 5 247 0.0 0.0 0.00 0.00 0.00 10 1010.3
20260507034358 5 225 0.0 0.0 0.00 0.00 0.00 10 1010.4
20260507033858 5 270 0.0 0.0 0.00 0.00 0.00 10 1010.4
20260507033358 5 247 0.0 0.0 0.00 0.00 0.00 10 1010.3
20260507032358 5 247 0.0 0.0 0.00 0.00 0.00 10 1010.4
20260507031858 5 247 0.0 0.0 0.00 0.00 0.00 10 1010.2
20260507031358 5 292 0.0 0.0 0.00 0.00 0.00 10 1010.3
20260507030858 5 270 0.0 0.0 0.00 0.00 0.00 10 1010.2
20260507030358 5 270 0.0 0.0 0.00 0.00 0.00 10 1010.4
20260507025858 5 270 0.0 0.0 0.00 0.00 0.00 10 1010.3
20260507025358 5 247 0.0 0.0 0.00 0.00 0.00 10 1010.4
20260507024858 5 270 0.0 0.0 0.00 0.00 0.00 10 1010.4
20260507024358 5 225 0.0 0.0 0.00 0.00 0.00 10 1010.2
20260507023859 5 247 0.0 0.0 0.00 0.00 0.00 10 1010.3
20260507023358 5 247 0.0 0.0 0.00 0.00 0.00 10 1010.3
20260507022858 5 247 0.0 0.0 0.00 0.00 0.00 10 1010.3
20260507022358 5 225 0.0 0.0 0.00 0.00 0.00 10 1010.3
20260507021858 5 225 0.0 0.0 0.00 0.00 0.00 10 1010.2
20260507021358 5 225 0.0 0.0 0.00 0.00 0.00 10 1010.2
20260507020858 5 247 0.0 0.0 0.00 0.00 0.00 10 1010.1
20260507020358 5 247 0.0 0.0 0.00 0.00 0.00 10 1010.1
20260507015858 5 247 0.0 0.0 0.00 0.00 0.00 10 1010.1
20260507015358 5 247 0.0 0.0 0.00 0.00 0.00 10 1010.0
20260507014858 4 247 0.0 0.0 0.00 0.00 0.00 10 1010.0
20260507014358 4 247 0.0 0.0 0.00 0.00 0.00 10 1010.0
20260507013858 4 270 0.0 0.0 0.00 0.00 0.00 10 1010.0
20260507013359 4 247 0.0 0.0 0.00 0.00 0.00 10 1010.0
20260507012859 4 225 0.0 0.0 0.00 0.00 0.00 10 1009.9
20260507012359 4 225 0.0 0.0 0.00 0.00 0.00 10 1010.1
20260507011858 4 225 0.0 0.0 0.00 0.00 0.00 10 1009.9
20260507011359 4 225 0.0 0.0 0.00 0.00 0.00 10 1009.8
20260507010859 4 247 0.0 0.0 0.00 0.00 0.00 10 1009.8
20260507010359 4 270 0.0 0.0 0.00 0.00 0.00 10 1009.8
20260507005859 4 247 0.0 0.0 0.00 0.00 0.00 10 1009.9
20260507005359 4 247 0.0 0.0 0.00 0.00 0.00 10 1010.0
20260507004859 5 225 0.0 0.0 0.00 0.00 0.00 10 1010.0
20260507004359 5 225 0.0 0.0 0.00 0.00 0.00 10 1010.0
20260507003859 5 247 0.0 0.0 0.00 0.00 0.00 10 1009.8
20260507003359 5 225 0.0 0.0 0.00 0.00 0.00 10 1009.8
20260507002859 5 247 0.0 0.0 0.00 0.00 0.00 10 1009.9
20260507002359 5 247 0.0 0.0 0.00 0.00 0.00 10 1010.0
20260507001859 5 225 0.0 0.0 0.00 0.00 0.00 10 1010.0
20260507001359 5 247 0.0 0.0 0.00 0.00 0.00 10 1009.9
20260507000859 5 247 0.0 0.0 0.00 0.00 0.00 10 1009.9
20260507000359 5 247 0.0 0.0 0.00 0.00 0.00 10 1010.0
20260506235859 5 247 0.0 0.0 0.00 0.00 0.00 10 1010.0
20260506235359 5 247 0.0 0.0 0.00 0.00 0.00 10 1010.0
20260506234859 5 270 0.0 0.0 0.00 0.00 0.00 10 1010.0
20260506234359 5 247 0.0 0.0 0.00 0.00 0.00 10 1010.0
20260506233859 5 247 0.0 0.0 0.00 0.00 0.00 10 1010.0
20260506233359 5 247 0.0 0.0 0.00 0.00 0.00 10 1010.1
20260506232859 5 247 0.0 0.0 0.00 0.00 0.00 10 1009.9
20260506232359 5 247 0.0 0.0 0.00 0.00 0.00 10 1009.8
20260506231859 5 270 0.0 0.0 0.00 0.00 0.00 10 1009.9
20260506231359 5 247 0.0 0.0 0.00 0.00 0.00 10 1009.9
20260506230859 5 247 0.0 0.0 0.00 0.00 0.00 10 1009.9
20260506230359 5 247 0.0 0.0 0.00 0.00 0.00 10 1009.8
20260506225859 5 247 0.0 0.0 0.00 0.00 0.00 10 1009.8
20260506225359 5 247 0.0 0.0 0.00 0.00 0.00 10 1009.7
20260506224859 5 225 0.0 0.0 0.00 0.00 0.00 10 1009.8
20260506224359 5 247 0.0 0.0 0.00 0.00 0.00 10 1009.7
20260506223859 5 270 0.0 0.0 0.00 0.00 0.00 10 1009.8
20260506223359 5 225 0.0 0.0 0.00 0.00 0.00 10 1009.7
20260506222859 5 247 0.0 0.0 0.00 0.00 0.00 10 1009.6
20260506222359 5 247 0.0 0.0 0.00 0.00 0.00 10 1009.4
20260506221859 5 247 0.0 0.0 0.00 0.00 0.00 10 1009.4
20260506221359 5 225 0.0 0.0 0.00 0.00 0.00 10 1009.6
20260506220859 5 247 0.0 0.0 0.00 0.00 0.00 10 1009.7
20260506220359 5 247 0.0 0.0 0.00 0.00 0.00 10 1009.7
20260506215859 5 247 0.0 0.0 0.00 0.00 0.00 10 1009.5
20260506215359 5 247 0.0 0.0 0.00 0.00 0.00 10 1009.4
20260506214859 5 270 0.0 0.0 0.00 0.00 0.00 10 1009.4
20260506214359 5 247 0.0 0.0 0.00 0.00 0.00 10 1009.5
20260506213859 5 225 0.0 0.0 0.00 0.00 0.00 10 1009.4
20260506213359 5 247 0.0 0.0 0.00 0.00 0.00 10 1009.5
20260506212859 5 247 0.0 0.0 0.00 0.00 0.00 10 1009.5
20260506212359 5 247 0.0 0.0 0.00 0.00 0.00 10 1009.4
20260506211859 5 247 0.0 0.0 0.00 0.00 0.00 10 1009.5
20260506211359 5 247 0.0 0.0 0.00 0.00 0.00 10 1009.5
20260506210859 5 247 0.0 0.0 0.00 0.00 0.00 10 1009.5
20260506205859 5 292 0.0 0.0 0.00 0.00 0.00 10 1009.7
20260506205359 5 247 0.0 0.0 0.00 0.00 0.00 10 1009.6
20260506204359 5 225 0.0 0.0 0.00 0.00 0.00 10 1009.6
20260506203859 5 247 0.0 0.0 0.00 0.00 0.00 10 1009.4
20260506203400 5 225 0.0 0.0 0.00 0.00 0.00 10 1009.4
20260506202859 5 247 0.0 0.0 0.00 0.00 0.00 10 1009.2
20260506202359 5 247 0.0 0.0 0.00 0.00 0.00 10 1009.3
20260506201859 5 247 0.0 0.0 0.00 0.00 0.00 10 1009.1
20260506201359 5 225 0.0 0.0 0.00 0.00 0.00 10 1009.0
20260506200359 5 247 0.0 0.0 0.00 0.00 0.00 10 1009.1
20260506195859 5 225 0.0 0.0 0.00 0.00 0.00 10 1008.9
20260506195359 5 247 0.0 0.0 0.00 0.00 0.00 10 1008.8
20260506194859 5 247 0.0 0.0 0.00 0.00 0.00 10 1009.0
20260506194359 5 247 0.0 0.0 0.00 0.00 0.00 10 1008.9
20260506193859 5 247 0.0 0.0 0.00 0.00 0.00 10 1008.9
20260506193400 5 247 0.0 0.0 0.00 0.00 0.00 10 1008.8
20260506192859 5 247 0.0 0.0 0.00 0.00 0.00 10 1009.0
20260506192359 5 202 0.0 0.0 0.00 0.00 0.00 10 1009.0
20260506191859 5 247 0.0 0.0 0.00 0.00 0.00 10 1009.0
20260506191359 5 247 0.0 0.0 0.00 0.00 0.00 10 1008.9
20260506190859 5 247 0.0 0.0 0.00 0.00 0.00 10 1008.7
20260506190359 5 247 0.0 0.0 0.00 0.00 0.00 10 1008.8
20260506185859 5 180 0.0 0.0 0.00 0.00 0.00 10 1008.8
20260506185359 5 225 0.0 0.0 0.00 0.00 0.00 10 1008.8
20260506184859 5 247 0.0 0.0 0.00 0.00 0.00 10 1008.5
20260506184359 5 247 0.0 0.0 0.00 0.00 0.00 10 1008.5
20260506183859 5 247 0.0 0.0 0.00 0.00 0.00 10 1008.5
20260506183359 5 247 0.0 0.0 0.00 0.00 0.00 10 1008.3
20260506182859 5 270 0.0 0.0 0.00 0.00 0.00 10 1008.3
20260506182359 5 292 0.0 0.0 0.00 0.00 0.00 10 1008.4
20260506181859 6 270 0.0 0.0 0.00 0.00 0.00 10 1008.3
20260506181359 6 225 0.0 0.0 0.00 0.00 0.00 10 1008.3
20260506180859 6 247 0.0 0.0 0.00 0.00 0.00 10 1008.4
20260506180400 6 247 0.0 0.0 0.00 0.00 0.00 10 1008.5
20260506175900 6 247 0.0 0.0 0.00 0.00 0.00 10 1008.5
20260506175400 5 225 0.0 0.0 0.00 0.00 0.00 10 1008.3
20260506174900 5 247 0.0 0.0 0.00 0.00 0.00 10 1008.3
20260506174400 5 247 0.0 0.0 0.00 0.00 0.00 10 1008.0
20260506173900 5 225 0.0 0.0 0.00 0.00 0.00 10 1007.9
20260506173400 6 247 0.0 0.0 0.00 0.00 0.00 10 1008.0
20260506172900 6 247 0.0 0.0 0.00 0.00 0.00 10 1007.7
20260506172400 6 270 0.0 0.0 0.00 0.00 0.00 10 1007.7
20260506171900 6 247 0.0 0.0 0.00 0.00 0.00 10 1007.7
20260506171400 6 225 0.0 0.0 0.00 0.00 0.00 10 1007.6
20260506170900 6 225 0.0 0.0 0.00 0.00 0.00 10 1007.4
20260506165900 7 247 0.0 0.0 0.00 0.00 0.00 10 1007.2
20260506165400 7 270 0.0 0.0 0.00 0.00 0.00 10 1007.1
20260506164900 7 225 0.0 0.0 0.00 0.00 0.00 10 1006.9
20260506164400 7 247 0.0 0.0 0.00 0.00 0.00 10 1007.2
20260506163900 7 270 0.0 0.0 0.00 0.00 0.00 10 1007.0
20260506163400 7 247 0.0 0.0 0.00 0.00 0.00 10 1007.1
20260506162900 7 247 0.0 0.0 0.00 0.00 0.00 10 1007.1
20260506162529 7 180 0.0 0.0 0.00 0.00 0.00 10 1006.9
20260506162400 7 247 0.0 0.0 0.00 0.00 0.00 10 1006.9
20260506161900 7 180 0.0 0.0 0.00 0.00 0.00 10 1006.9
20260506161400 7 247 0.0 0.0 0.00 0.00 0.00 10 1006.9
20260506160900 8 247 0.0 0.0 0.00 0.00 0.00 10 1006.9
20260506160400 8 247 0.0 0.0 0.00 0.00 0.00 10 1006.8
20260506155900 8 225 0.0 0.0 0.00 0.00 0.00 10 1006.8
20260506155400 8 247 0.0 0.0 0.00 0.00 0.00 10 1006.8
20260506154900 7 247 0.0 0.0 0.00 0.00 0.00 10 1006.9
20260506154400 7 247 0.0 0.0 0.00 0.00 0.00 10 1007.0
20260506153900 7 225 0.0 0.0 0.00 0.00 0.00 10 1006.9
20260506153400 8 247 0.0 0.0 0.00 0.00 0.00 10 1006.8
20260506152900 9 247 0.0 0.0 0.00 0.00 0.00 10 1006.8
20260506152400 11 247 0.0 0.0 0.00 0.00 0.00 11 1006.7
20260506151900 13 247 0.0 0.0 0.00 0.00 0.00 13 1006.6
20260506151400 15 247 0.0 0.0 0.00 0.00 0.00 10 1006.4
20260506150900 15 225 0.0 0.0 0.00 0.00 0.00 10 1006.2
20260506145900 14 157 0.0 0.0 0.00 0.00 0.00 10 1006.2
20260506145400 14 157 0.0 0.0 0.00 0.00 0.00 10 1005.9
20260506144900 14 157 0.0 0.0 0.00 0.00 0.00 10 1005.9
20260506144400 13 157 0.0 0.0 0.00 0.00 0.00 10 1005.9
20260506143900 13 157 0.0 0.0 0.00 0.00 0.00 10 1005.9
20260506143400 13 157 0.0 0.0 0.00 0.00 0.00 10 1006.1
20260506142900 13 157 0.0 0.0 0.00 0.00 0.00 10 1005.9
20260506142400 13 157 0.0 0.0 0.00 0.00 0.00 10 1005.8
20260506141900 12 225 0.0 0.0 0.00 0.00 0.00 10 1005.9
20260506141400 12 225 0.0 0.0 0.00 0.00 0.00 10 1005.8
20260506140900 12 157 0.0 0.0 0.00 0.00 0.00 10 1006.0
20260506135900 11 225 0.0 0.0 0.00 0.00 0.00 10 1006.0
20260506134900 10 247 0.0 0.0 0.00 0.00 0.00 10 1006.1
20260506134400 10 247 0.0 0.0 0.00 0.00 0.00 10 1006.0
20260506133900 10 0 0.0 0.0 0.00 0.00 0.00 10 1006.0
20260506133400 10 180 0.0 0.0 0.00 0.00 0.00 10 1006.1
20260506132900 9 180 0.0 0.0 0.00 0.00 0.00 10 1006.3
20260506132400 8 180 0.0 0.0 0.00 0.00 0.00 10 1006.5
20260506131900 8 180 0.0 0.0 0.00 0.00 0.00 10 1006.7
20260506131400 8 180 0.0 0.0 0.00 0.00 0.00 10 1006.7
20260506130900 8 180 0.0 0.0 0.00 0.00 0.00 10 1007.1
20260506130400 10 292 0.0 0.0 0.00 0.00 0.00 10 1007.1
20260506125900 10 270 0.0 0.0 0.00 0.00 0.00 10 1007.1
20260506124900 12 315 0.0 0.0 0.00 0.00 0.00 10 1006.7
20260506124400 13 337 0.0 0.0 0.00 0.00 0.00 15 1006.4
20260506123900 13 0 0.0 0.0 0.00 0.00 0.00 20 1006.3
20260506123400 14 22 0.0 0.0 0.00 0.00 0.00 24 1006.0
20260506122900 15 22 0.0 0.0 0.00 0.00 0.00 28 1005.8
20260506122400 15 22 0.0 0.0 0.00 0.00 0.00 32 1006.0
20260506121900 16 22 0.0 0.0 0.00 0.00 0.00 33 1006.2
20260506121400 16 22 0.0 0.0 0.00 0.00 0.00 36 1006.2
20260506120900 16 22 0.0 0.0 0.00 0.00 0.00 38 1006.3
20260506120400 17 67 0.0 0.0 0.00 0.00 0.00 40 1006.3
20260506115900 17 337 0.0 0.0 0.00 0.00 0.00 39 1006.4
20260506115400 17 45 0.0 0.0 0.00 0.00 0.00 38 1006.3
20260506114900 18 45 0.0 0.0 0.00 0.00 0.00 37 1006.2
20260506114400 17 112 0.0 0.0 0.00 0.00 0.00 37 1006.4
20260506113900 17 22 0.0 0.0 0.00 0.00 0.00 37 1006.2
20260506113401 17 22 0.0 0.0 0.00 0.00 0.00 38 1006.3
20260506112400 17 22 0.0 0.0 0.00 0.00 0.00 42 1006.5
20260506111900 17 67 0.0 0.0 0.00 0.00 0.00 42 1006.6
20260506111400 17 67 0.0 0.0 0.00 0.00 0.00 44 1006.6
20260506110900 18 90 0.0 0.0 0.00 0.00 0.00 44 1006.6
20260506110400 18 90 0.0 0.0 0.00 0.00 0.00 45 1006.7
20260506105400 19 45 0.0 0.0 0.00 0.00 0.00 45 1006.7
20260506104900 20 67 0.0 0.0 0.00 0.00 0.00 45 1006.5
20260506104400 20 45 0.0 0.0 0.00 0.00 0.00 45 1006.6
20260506103900 20 45 0.0 0.0 0.00 0.00 0.00 45 1006.5
20260506103401 20 45 0.0 0.0 0.00 0.00 0.00 45 1006.4
20260506102901 20 112 0.0 0.0 0.00 0.00 0.00 45 1006.3
20260506102401 21 315 0.0 0.0 0.00 0.00 0.00 45 1006.5
20260506101901 21 135 0.0 0.0 0.00 0.00 0.00 44 1006.6
20260506101401 21 67 0.0 0.0 0.00 0.00 0.00 44 1006.5
20260506100901 21 67 0.0 0.0 0.00 0.00 0.00 44 1006.4
20260506095901 20 90 0.0 0.0 0.00 0.00 0.00 38 1006.3
20260506095401 19 22 0.0 0.0 0.00 0.00 0.00 38 1006.3
20260506094901 18 22 0.0 0.0 0.00 0.00 0.00 35 1006.4
20260506094401 18 45 0.0 0.0 0.00 0.00 0.00 34 1006.4
20260506093901 18 67 0.0 0.0 0.00 0.00 0.00 32 1006.5
20260506092901 18 45 0.0 0.0 0.00 0.00 0.00 27 1006.5
20260506092401 17 67 0.0 0.0 0.00 0.00 0.00 18 1006.4
20260506091901 17 45 0.0 0.0 0.00 0.00 0.00 10 1006.3
20260506091401 16 67 0.0 0.0 0.00 0.00 0.00 14 1006.4
20260506090901 16 67 0.0 0.0 0.00 0.00 0.00 11 1006.3
20260506090401 15 67 0.0 0.0 0.00 0.00 0.00 10 1006.5
20260506085901 15 22 0.0 0.0 0.00 0.00 0.00 10 1006.4
20260506085401 14 22 0.0 0.0 0.00 0.00 0.00 10 1006.3
20260506084901 13 22 0.0 0.0 0.00 0.00 0.00 10 1006.7
20260506084401 13 22 0.0 0.0 0.00 0.00 0.00 10 1006.5
20260506083901 13 22 0.0 0.0 0.00 0.00 0.00 10 1006.6
20260506083401 13 45 0.0 0.0 0.00 0.00 0.00 10 1006.3
20260506082901 13 45 0.0 0.0 0.00 0.00 0.00 10 1006.3
20260506082401 13 112 0.0 0.0 0.00 0.00 0.00 10 1006.4
20260506081401 12 112 0.0 0.0 0.00 0.00 0.00 10 1006.6
20260506080901 12 112 0.0 0.0 0.00 0.00 0.00 10 1006.7
20260506080402 12 112 0.0 0.0 0.00 0.00 0.00 10 1006.4
20260506073401 10 157 0.0 0.0 0.00 0.00 0.00 10 1006.3
20260506072901 10 157 0.0 0.0 0.00 0.00 0.00 10 1006.4
20260506072401 10 157 0.0 0.0 0.00 0.00 0.00 10 1006.5
20260506071901 10 157 0.0 0.0 0.00 0.00 0.00 10 1006.6
20260506071401 10 157 0.0 0.0 0.00 0.00 0.00 10 1006.5
20260506070901 10 157 0.0 0.0 0.00 0.00 0.00 10 1006.6
20260506062401 8 157 0.0 0.0 0.00 0.00 0.00 10 1007.0
20260506061901 8 157 0.0 0.0 0.00 0.00 0.00 10 1006.8
20260506061402 7 157 0.0 0.0 0.00 0.00 0.00 10 1006.7
20260506060901 7 157 0.0 0.0 0.00 0.00 0.00 10 1006.6
20260506060401 7 157 0.0 0.0 0.00 0.00 0.00 10 1006.8
20260506051401 7 157 0.0 0.0 0.00 0.00 0.00 10 1006.7
20260506050901 7 157 0.0 0.0 0.00 0.00 0.00 10 1006.8
20260506044901 7 225 0.0 0.0 0.00 0.00 0.00 10 1007.0
20260506044401 6 225 0.0 0.0 0.00 0.00 0.00 10 1007.1
20260506043901 6 247 0.0 0.0 0.00 0.00 0.00 10 1007.1
20260506043401 6 247 0.0 0.0 0.00 0.00 0.00 10 1006.9
20260506042901 6 225 0.0 0.0 0.00 0.00 0.00 10 1006.9
20260506042401 6 225 0.0 0.0 0.00 0.00 0.00 10 1006.9
20260506041901 6 225 0.0 0.0 0.00 0.00 0.00 10 1007.0
20260506041401 6 225 0.0 0.0 0.00 0.00 0.00 10 1007.1
20260506040901 6 247 0.0 0.0 0.00 0.00 0.00 10 1007.1